DateTimeUTC,F1_A11,F1_S11,BsB_S11,BsG_S11,BsR_S11,BbsB_S11,BbsG_S11,BbsR_S11,BaB_A11,BaG_A11,BaR_A11,Tu_S11,T_S11,Uu_S11,U_S11,P_S11,T1_A11
2021-01-05T16:00:00Z,00000200,21000000,,,,,,,0000.38,-000.19,0000.54,15.5,22.6,,00.0,0631.9,30.8
2021-01-05T16:01:00Z,00000200,21000000,,,,,,,0000.05,0000.35,-000.15,15.5,22.6,,00.0,0631.9,30.8
2021-01-05T16:02:00Z,00000200,21000000,,,,,,,0000.06,-000.20,-000.12,15.5,22.6,,00.0,0631.9,30.8
2021-01-05T16:03:00Z,00000200,61000000,,,,,,,0000.30,0000.09,0000.22,15.5,22.6,,00.0,0631.9,30.8
2021-01-05T16:04:00Z,00000200,41000000,0000.25,0000.24,0000.02,0000.65,0000.15,0000.04,0000.16,-000.13,0000.13,15.9,22.5,,00.0,0632.7,30.8
2021-01-05T16:05:00Z,00000200,01000000,0000.24,0000.24,-000.20,0000.46,0000.02,-000.10,-000.27,0000.41,-000.05,16.0,22.5,,00.0,0632.7,30.8
2021-01-05T16:06:00Z,00000200,01000000,0000.33,0000.31,-000.01,0000.72,0000.10,-000.10,0000.04,0000.17,-000.02,15.9,22.5,,00.0,0632.7,30.8
2021-01-05T16:07:00Z,00000200,01000000,0000.39,0000.23,-000.13,0000.04,0000.16,0000.01,0000.42,-000.01,-000.15,15.9,22.5,,00.0,0632.7,30.8
2021-01-05T16:08:00Z,00000200,01000000,0000.47,-000.05,-000.17,-000.11,0000.29,-000.29,-000.27,-000.17,-000.20,15.8,22.4,,00.0,0632.7,30.8
2021-01-05T16:09:00Z,00000200,01000000,-000.07,0000.23,-000.26,0000.37,0000.03,-000.27,-000.07,0000.09,0000.55,15.8,22.4,,00.0,0632.8,30.8
2021-01-05T16:10:00Z,00000200,01000000,0000.15,0000.03,-000.09,-000.10,0000.54,-000.09,0000.06,-000.01,-000.26,15.8,22.4,,00.0,0632.8,30.8
2021-01-05T16:11:00Z,00000200,01000000,-000.04,0000.40,-000.04,0000.03,0000.13,-000.15,0000.05,0000.24,0000.69,15.7,22.4,,00.0,0632.8,30.8
2021-01-05T16:12:00Z,00000200,01000000,-000.59,0000.17,0000.01,0000.03,0000.14,0000.11,0000.26,0000.09,-000.34,15.8,22.4,,00.0,0632.8,30.8
2021-01-05T16:13:00Z,00000200,01000000,-000.40,0000.14,-000.02,-000.06,0000.05,-000.28,0000.33,0000.33,0000.14,15.8,22.4,,00.0,0632.8,30.8
2021-01-05T16:14:00Z,00000200,01000000,0000.12,0000.18,-000.05,0000.50,0000.12,-000.01,-000.42,-000.39,-000.30,15.9,22.4,,00.0,0632.8,30.8
2021-01-05T16:15:00Z,00000200,01000000,-000.08,0000.12,0000.25,-000.42,-000.00,0000.10,0000.05,0000.12,-000.07,15.9,22.4,,00.0,0632.7,30.8
2021-01-05T16:16:00Z,00000200,01000000,-000.04,0000.17,0000.23,0000.15,0000.07,0000.01,0000.33,0000.13,0000.33,16.0,22.4,,00.0,0632.7,30.8
2021-01-05T16:17:00Z,00000200,01000000,0000.05,0000.32,-000.09,0000.26,0000.26,0000.03,-000.03,0000.06,0000.08,16.0,22.5,,00.0,0632.7,30.9
2021-01-05T16:18:00Z,00000200,01000000,-000.08,0000.33,-000.06,0000.45,-000.02,0000.07,0000.32,0000.41,0000.38,16.0,22.5,,00.0,0632.7,30.9
2021-01-05T16:19:00Z,00000200,01000000,0000.30,0000.21,0000.06,0000.18,0000.13,0000.00,-000.13,0000.05,-000.19,16.1,22.5,,00.0,0632.7,30.9
2021-01-05T16:20:00Z,00000200,01000000,0000.14,0000.12,-000.19,0000.48,-000.14,-000.31,-000.02,-000.06,0000.13,16.1,22.5,,00.0,0632.7,30.8
2021-01-05T16:21:00Z,00000200,01000000,0000.06,0000.48,-000.03,0000.14,0000.15,-000.07,0000.34,-000.08,0000.00,16.1,22.6,,00.0,0632.6,30.8
2021-01-05T16:22:00Z,00000200,01000000,-000.33,0000.10,-000.07,-000.29,0000.03,0000.05,-000.31,0000.03,-000.01,16.0,22.5,,00.0,0632.7,30.8
2021-01-05T16:23:00Z,00000200,01000000,0000.23,0000.20,-000.10,0000.27,0000.18,-000.14,0000.20,0000.13,-000.16,16.0,22.5,,00.0,0632.7,30.8
2021-01-05T16:24:00Z,00000200,01000000,0000.19,0000.50,-000.01,-000.02,0000.14,-000.19,-000.22,-000.06,0000.34,16.0,22.5,,00.0,0632.7,30.8
2021-01-05T16:25:00Z,00000200,01000000,-000.22,0000.12,-000.04,-000.00,0000.17,0000.07,0000.42,0000.27,-000.41,15.9,22.5,,00.0,0632.7,30.8
2021-01-05T16:26:00Z,00000200,01000000,0000.46,0000.35,-000.08,0000.41,-000.07,-000.17,-000.18,-000.35,0000.27,15.9,22.5,,00.0,0632.7,30.8
2021-01-05T16:27:00Z,00000200,01000000,0000.17,0000.17,0000.01,0000.85,-000.05,-000.14,0000.50,0000.44,0000.23,16.0,22.5,,00.0,0632.7,30.8
2021-01-05T16:28:00Z,00000200,01000000,-000.50,0000.34,-000.11,0000.34,0000.02,-000.19,-000.02,0000.07,0000.12,16.0,22.5,,00.0,0632.7,30.8
2021-01-05T16:29:00Z,00000200,01000000,-000.06,0000.39,0000.01,-000.20,0000.14,0000.02,0000.01,0000.11,0000.08,16.0,22.5,,00.0,0632.8,30.9
2021-01-05T16:30:00Z,00000200,01000000,0000.87,0000.18,-000.10,0000.05,0000.03,-000.06,0000.17,-000.24,0000.06,16.1,22.6,,00.0,0632.8,30.9
2021-01-05T16:31:00Z,00000200,01000000,0000.22,0000.21,-000.37,0000.19,0000.20,-000.34,0000.15,0000.59,0000.01,16.1,22.6,,00.0,0632.8,30.9
2021-01-05T16:32:00Z,00000200,01000000,0000.17,0000.47,0000.02,-000.09,0000.04,0000.01,-000.16,-000.24,-000.31,16.1,22.6,,00.0,0632.8,30.9
2021-01-05T16:33:00Z,00000200,01000000,0000.02,0000.19,0000.22,0000.32,-000.02,0000.02,-000.09,-000.01,0000.19,16.1,22.6,,00.0,0632.8,30.9
2021-01-05T16:34:00Z,00000200,01000000,-000.36,0000.09,-000.07,0000.23,0000.45,0000.19,-000.16,-000.20,0000.01,16.1,22.6,,00.0,0632.9,30.8
2021-01-05T16:35:00Z,00000200,01000000,0000.33,-000.04,0000.07,0000.02,-000.06,0000.08,0000.00,0000.29,-000.13,16.0,22.6,,00.0,0632.9,30.8
2021-01-05T16:36:00Z,00000200,01000000,0000.35,0000.22,-000.04,0000.04,0000.13,0000.01,0000.45,-000.32,-000.15,16.0,22.5,,00.0,0632.9,30.8
2021-01-05T16:37:00Z,00000200,01000000,-000.45,0000.37,-000.08,0000.04,-000.06,0000.20,-000.32,-000.19,-000.03,16.0,22.5,,00.0,0632.9,30.8
2021-01-05T16:38:00Z,00000200,01000000,0000.42,0000.49,0000.01,0000.10,0000.19,-000.01,-000.17,-000.02,-000.18,15.9,22.5,,00.0,0633.0,30.8
2021-01-05T16:39:00Z,00000200,01000000,0000.26,0000.42,-000.04,0000.54,0000.17,0000.06,0000.10,0000.31,0000.12,15.9,22.5,,00.0,0633.0,30.8
2021-01-05T16:40:00Z,00000200,01000000,0000.17,0000.13,-000.11,0000.00,-000.05,-000.12,0000.09,0000.10,0000.05,15.8,22.5,,00.0,0633.0,30.8
2021-01-05T16:41:00Z,00000200,01000000,0000.26,0000.16,0000.19,0000.24,0000.14,-000.17,-000.10,-000.21,0000.33,15.9,22.4,,00.0,0633.0,30.8
2021-01-05T16:42:00Z,00000200,01000000,0000.45,0000.12,-000.00,0000.06,-000.01,-000.19,0000.24,0000.04,-000.01,15.9,22.4,,00.0,0633.0,30.8
2021-01-05T16:43:00Z,00000200,01000000,0000.22,0000.11,0000.18,-000.59,0000.02,0000.12,-000.16,0000.04,-000.13,16.0,22.5,,00.0,0633.0,30.8
2021-01-05T16:44:00Z,00000200,01000000,0000.45,-000.02,-000.04,0000.05,0000.10,0000.24,0000.34,0000.21,0000.08,16.0,22.5,,00.0,0633.0,30.8
2021-01-05T16:45:00Z,00000200,01000000,0000.32,0000.27,0000.04,0000.26,0000.13,0000.27,0000.02,-000.06,0000.10,16.0,22.5,,00.0,0633.0,30.8
2021-01-05T16:46:00Z,00000200,01000000,-000.09,0000.35,-000.03,0000.10,0000.25,0000.02,-000.08,0000.20,0000.08,16.1,22.5,,00.0,0633.0,30.8
2021-01-05T16:47:00Z,00000200,01000000,0000.17,0000.30,0000.12,-000.30,-000.23,0000.20,0000.03,0000.17,0000.11,16.1,22.5,,00.0,0633.0,30.8
2021-01-05T16:48:00Z,00000200,01000000,-000.27,0000.10,-000.06,0000.02,0000.09,0000.02,-000.09,-000.14,-000.16,16.1,22.6,,00.0,0633.0,30.8
2021-01-05T16:49:00Z,00000200,01000000,-000.14,0000.09,-000.05,0000.13,-000.00,0000.07,-000.02,-000.06,-000.19,16.1,22.6,,00.0,0633.0,30.8
2021-01-05T16:50:00Z,00000200,01000000,-000.06,0000.18,-000.09,-000.03,0000.05,0000.19,-000.09,-000.02,0000.25,16.1,22.6,,00.0,0633.1,30.8
2021-01-05T16:51:00Z,00000200,01000000,0000.27,0000.18,0000.42,0000.03,-000.10,0000.08,0000.34,-000.14,-000.39,16.0,22.6,,00.0,0633.1,30.8
2021-01-05T16:52:00Z,00000200,01000000,0000.06,0000.06,0000.25,0000.55,0000.19,0000.10,-000.32,-000.23,0000.09,16.0,22.5,,00.0,0633.1,30.8
2021-01-05T16:53:00Z,00000200,01000000,0000.09,-000.01,0000.26,-000.34,0000.21,0000.13,-000.18,0000.35,0000.14,16.0,22.5,,00.0,0633.2,30.8
2021-01-05T16:54:00Z,00000200,01000000,-000.23,0000.35,-000.09,-000.09,0000.15,-000.03,0000.12,-000.47,-000.19,15.9,22.5,,00.0,0633.2,30.8
2021-01-05T16:55:00Z,00000200,01000000,-000.29,0000.16,0000.11,0000.06,0000.14,-000.03,0000.14,0000.34,0000.12,15.9,22.5,,00.0,0633.3,30.8
2021-01-05T16:56:00Z,00000200,01000000,-000.50,0000.16,0000.14,0000.07,0000.11,-000.13,0000.12,0000.05,-000.13,15.9,22.5,,00.0,0633.3,30.8
2021-01-05T16:57:00Z,00000200,41000000,,,,,,,0000.06,0000.02,0000.55,15.9,22.5,,00.0,0633.2,30.8
2021-01-05T16:58:00Z,00000200,61000000,,,,,,,-000.24,-000.06,-000.19,15.6,22.7,,00.0,0632.4,30.8
2021-01-05T16:59:00Z,00000200,21000000,,,,,,,-000.06,0000.01,-000.23,15.6,22.8,,00.0,0632.4,30.8
